This is the latest recevied weather packets stored in our database for station/object PD2BVG. If no packets are shown the sender has not sent any weather packets the latest 1 day(s).
| Time | Temp. | Humidity | Pressure | Rain* | Wind** | Luminosity | Snow |
|---|---|---|---|---|---|---|---|
| 1777948267 | 11.11° C | 90% | 1012.4 hPa | 0 mm | 3.13 m/s, 338° | 0 W/m² | - |
| 1777948209 | 11.11° C | 90% | 1012.5 hPa | 0 mm | 2.68 m/s, 0° | 0 W/m² | - |
| 1777948147 | 11.11° C | 90% | 1012.5 hPa | 0 mm | 2.68 m/s, 350° | 0 W/m² | - |
| 1777948086 | 11.11° C | 90% | 1012.5 hPa | 0 mm | 2.68 m/s, 0° | 0 W/m² | - |
| 1777948026 | 11.11° C | 90% | 1012.5 hPa | 0 mm | 2.68 m/s, 340° | 0 W/m² | - |
| 1777947964 | 11.11° C | 90% | 1012.5 hPa | 0 mm | 3.13 m/s, 355° | 0 W/m² | - |
| 1777947903 | 11.11° C | 90% | 1012.6 hPa | 0 mm | 3.13 m/s, 0° | 0 W/m² | - |
| 1777947843 | 11.11° C | 91% | 1012.5 hPa | 0 mm | 2.68 m/s, 351° | 0 W/m² | - |
| 1777947783 | 11.11° C | 90% | 1012.5 hPa | 0 mm | 2.24 m/s, 351° | 0 W/m² | - |
| 1777947722 | 11.11° C | 90% | 1012.4 hPa | 0 mm | 2.68 m/s, 345° | 0 W/m² | - |
| 1777947663 | 11.11° C | 90% | 1012.5 hPa | 0 mm | 3.13 m/s, 20° | 0 W/m² | - |
| 1777947604 | 11.11° C | 90% | 1012.5 hPa | 0 mm | 2.68 m/s, 8° | 0 W/m² | - |
| 1777947545 | 11.11° C | 90% | 1012.4 hPa | 0 mm | 2.68 m/s, 348° | 0 W/m² | - |
| 1777947483 | 11.11° C | 90% | 1012.5 hPa | 0 mm | 3.13 m/s, 0° | 0 W/m² | - |
| 1777947422 | 11.11° C | 90% | 1012.5 hPa | 0 mm | 3.13 m/s, 317° | 0 W/m² | - |
| 1777947364 | 11.11° C | 90% | 1012.5 hPa | 0 mm | 3.13 m/s, 345° | 0 W/m² | - |
| 1777947301 | 11.11° C | 90% | 1012.6 hPa | 0 mm | 4.02 m/s, 331° | 0 W/m² | - |
| 1777947241 | 11.11° C | 91% | 1012.5 hPa | 0 mm | 4.02 m/s, 343° | 0 W/m² | - |
| 1777947181 | 11.11° C | 91% | 1012.6 hPa | 0 mm | 3.58 m/s, 323° | 0 W/m² | - |
| 1777947121 | 11.11° C | 91% | 1012.6 hPa | 0 mm | 3.58 m/s, 1° | 0 W/m² | - |
| 1777947061 | 11.11° C | 91% | 1012.6 hPa | 0 mm | 3.13 m/s, 354° | 0 W/m² | - |
| 1777947001 | 11.11° C | 91% | 1012.7 hPa | 0 mm | 2.68 m/s, 320° | 0 W/m² | - |
| 1777946940 | 11.11° C | 91% | 1012.6 hPa | 0 mm | 3.13 m/s, 353° | 0 W/m² | - |
| 1777946880 | 11.11° C | 91% | 1012.7 hPa | 0 mm | 3.13 m/s, 0° | 0 W/m² | - |
| 1777946820 | 11.11° C | 91% | 1012.7 hPa | 0 mm | 3.13 m/s, 324° | 0 W/m² | - |
* Rain latest hour (hover to see other rain measurements)
** Current wind speed in m/s (hover to see current wind gust speed)